TimeCDT,TemperatureF,Dew PointF,Humidity,Sea Level PressureIn,VisibilityMPH,Wind Direction,Wind SpeedMPH,Gust SpeedMPH,PrecipitationIn,Events,Conditions,WindDirDegrees,DateUTC
12:54 AM,39.9,27.0,60,30.17,10.0,SSE,6.9,-,0.00,Rain,Light Rain,150,2012-10-13 05:54:00
1:54 AM,39.0,32.0,76,30.15,5.0,SSE,9.2,-,0.02,Rain,Rain,160,2012-10-13 06:54:00
2:50 AM,37.4,35.6,93,30.09,5.0,SSE,8.1,-,0.05,Rain,Rain,150,2012-10-13 07:50:00
2:54 AM,37.9,36.0,93,30.12,4.0,SSE,9.2,-,0.07,Rain,Rain,150,2012-10-13 07:54:00
3:10 AM,37.4,35.6,93,30.08,3.0,SSE,11.5,17.3,0.03,Rain,Rain,160,2012-10-13 08:10:00
3:39 AM,37.4,37.4,100,30.07,2.5,SSE,9.2,-,0.06,Rain,Light Rain,160,2012-10-13 08:39:00
3:45 AM,37.4,37.4,100,30.07,3.0,SSE,10.4,-,0.06,Rain,Light Rain,160,2012-10-13 08:45:00
3:54 AM,37.9,37.0,97,30.09,4.0,SSE,9.2,-,0.06,Rain,Light Rain,150,2012-10-13 08:54:00
4:54 AM,39.0,37.9,96,30.04,3.0,SE,9.2,-,0.02,,Overcast,130,2012-10-13 09:54:00
5:08 AM,39.2,37.4,93,30.01,2.5,SE,11.5,19.6,N/A,,Overcast,140,2012-10-13 10:08:00
5:54 AM,39.9,39.0,97,30.03,3.0,SSE,12.7,-,0.00,,Overcast,160,2012-10-13 10:54:00
6:14 AM,39.2,37.4,93,29.98,2.5,SSE,11.5,-,N/A,,Overcast,160,2012-10-13 11:14:00
6:44 AM,39.2,37.4,93,29.95,3.0,SSE,11.5,-,0.00,,Overcast,150,2012-10-13 11:44:00
6:54 AM,39.0,37.9,96,29.98,4.0,SE,10.4,-,0.00,,Overcast,130,2012-10-13 11:54:00
7:30 AM,39.2,39.2,100,29.94,2.5,SSE,10.4,-,0.00,Rain,Light Rain,150,2012-10-13 12:30:00
7:54 AM,39.9,39.0,97,29.96,1.8,SSE,10.4,-,0.00,Rain,Light Rain,150,2012-10-13 12:54:00
8:02 AM,39.2,39.2,100,29.91,2.0,SSE,10.4,-,0.00,,Overcast,150,2012-10-13 13:02:00
8:10 AM,39.2,39.2,100,29.90,1.5,SSE,10.4,-,0.00,Rain,Light Rain,150,2012-10-13 13:10:00
8:54 AM,41.0,39.9,96,29.92,3.0,SSE,9.2,-,0.01,Rain,Light Rain,150,2012-10-13 13:54:00
9:54 AM,41.0,41.0,100,29.92,1.8,SSE,9.2,-,0.00,Rain,Rain,160,2012-10-13 14:54:00
10:25 AM,42.8,41.0,93,29.88,2.5,South,6.9,-,0.02,Rain,Light Rain,170,2012-10-13 15:25:00
10:50 AM,42.8,41.0,93,29.87,4.0,SSE,4.6,-,0.02,Rain,Light Rain,160,2012-10-13 15:50:00
10:54 AM,42.1,41.0,96,29.89,3.0,SE,5.8,-,0.02,Rain,Light Rain,140,2012-10-13 15:54:00
11:54 AM,43.0,42.1,97,29.85,3.0,SE,5.8,-,0.04,Rain,Light Rain,130,2012-10-13 16:54:00
12:54 PM,45.0,44.1,97,29.82,4.0,South,8.1,-,0.02,Rain,Light Rain,170,2012-10-13 17:54:00
1:05 PM,44.6,44.6,100,29.79,1.8,SSE,10.4,-,0.00,Rain,Rain,160,2012-10-13 18:05:00
1:29 PM,44.6,44.6,100,29.77,2.5,SSE,6.9,-,0.02,Rain,Light Rain,160,2012-10-13 18:29:00
1:54 PM,46.0,45.0,96,29.78,2.5,SSE,5.8,-,0.03,Rain,Light Rain,160,2012-10-13 18:54:00
2:15 PM,46.4,46.4,100,29.74,3.0,SSE,4.6,-,0.00,Rain,Light Rain,160,2012-10-13 19:15:00
2:33 PM,46.4,46.4,100,29.74,1.8,South,6.9,-,0.02,Rain,Rain,170,2012-10-13 19:33:00
2:54 PM,46.9,46.0,97,29.76,1.5,South,4.6,-,0.05,Rain,Rain,170,2012-10-13 19:54:00
3:11 PM,46.4,46.4,100,29.73,1.2,South,5.8,-,0.07,Rain,Heavy Rain,170,2012-10-13 20:11:00
3:23 PM,48.2,46.4,93,29.72,1.5,SSE,3.5,-,0.11,Rain,Rain,150,2012-10-13 20:23:00
3:36 PM,48.2,46.4,93,29.72,1.5,SE,3.5,-,0.13,Rain,Rain,140,2012-10-13 20:36:00
3:47 PM,48.2,46.4,93,29.71,1.5,SSE,3.5,-,0.16,Rain,Rain,150,2012-10-13 20:47:00
3:54 PM,48.0,48.0,100,29.74,1.8,SSE,3.5,-,0.18,Rain,Rain,160,2012-10-13 20:54:00
4:14 PM,48.2,48.2,100,29.71,2.0,South,4.6,-,0.04,Rain,Rain,170,2012-10-13 21:14:00
4:51 PM,48.2,48.2,100,29.72,3.0,Calm,Calm,-,0.06,Rain,Light Rain,0,2012-10-13 21:51:00
4:54 PM,48.9,48.0,97,29.74,2.0,Calm,Calm,-,0.06,Rain,Light Rain,0,2012-10-13 21:54:00
5:02 PM,48.2,48.2,100,29.72,1.5,Calm,Calm,-,0.00,Rain,Light Rain,0,2012-10-13 22:02:00
5:29 PM,48.2,48.2,100,29.72,2.0,Calm,Calm,-,0.02,Rain,Light Rain,0,2012-10-13 22:29:00
5:54 PM,48.9,48.9,100,29.74,2.0,Calm,Calm,-,0.02,,Overcast,0,2012-10-13 22:54:00
6:02 PM,50.0,48.2,94,29.72,1.5,Calm,Calm,-,0.00,Rain,Light Rain,0,2012-10-13 23:02:00
6:26 PM,50.0,48.2,94,29.72,2.0,Calm,Calm,-,0.00,,Overcast,0,2012-10-13 23:26:00
6:54 PM,48.9,48.9,100,29.75,2.5,ESE,3.5,-,0.00,,Overcast,110,2012-10-13 23:54:00
7:22 PM,50.0,48.2,94,29.73,3.0,NNE,3.5,-,0.00,Rain,Light Rain,30,2012-10-14 00:22:00
7:44 PM,50.0,48.2,94,29.73,2.5,Calm,Calm,-,0.00,Rain,Light Rain,0,2012-10-14 00:44:00
7:54 PM,48.9,48.9,100,29.75,2.0,NNE,3.5,-,0.00,Rain,Light Rain,30,2012-10-14 00:54:00
8:27 PM,48.2,48.2,100,29.73,3.0,NE,5.8,-,0.00,Rain,Light Rain,50,2012-10-14 01:27:00
9:06 PM,50.0,48.2,94,29.74,2.0,NNE,5.8,-,N/A,,Overcast,30,2012-10-14 02:06:00
9:54 PM,50.0,50.0,100,29.75,1.5,ENE,3.5,-,0.00,Rain,Light Rain,70,2012-10-14 02:54:00
10:00 PM,50.0,50.0,100,29.72,2.0,ENE,4.6,-,0.01,Rain,Light Rain,60,2012-10-14 03:00:00
10:13 PM,50.0,50.0,100,29.73,4.0,ENE,3.5,-,0.01,,Overcast,70,2012-10-14 03:13:00
10:42 PM,50.0,48.2,94,29.73,2.5,NE,5.8,-,0.01,,Overcast,50,2012-10-14 03:42:00
10:54 PM,50.0,48.9,96,29.76,2.5,NE,5.8,-,0.01,,Overcast,40,2012-10-14 03:54:00
11:01 PM,50.0,48.2,94,29.73,2.5,NE,5.8,-,N/A,,Overcast,50,2012-10-14 04:01:00
11:40 PM,48.2,48.2,100,29.72,3.0,NE,8.1,-,0.00,,Overcast,40,2012-10-14 04:40:00